Location: Wiesbaden
(50.0830°N, 8.2500°E)
Time: 21:41:36
(UTC+02:00)

ISS - Pass Details

Date: 24 April 2026
Orbit: 414 x 424 km, 51.6° (Epoch: 12 May)

Event Time Altitude Azimuth Distance (km) Brightness Sun altitude
Exits shadow 05:31:24 10° 247° (WSW) 1,523 -1.6 -7.3°
Reaches altitude 10° 05:31:27 10° 247° (WSW) 1,497 -1.6 -7.3°
Maximum altitude 05:34:49 79° 162° (SSE) 433 -3.7 -6.9°
Drops below altitude 10° 05:38:12 10° 75° (ENE) 1,509 0.7 -6.4°
Sets 05:40:19 0° 74° (ENE) 2,377 2.1 -6.1°
